Weather History for KLTS - October, 2013

Change the Weather History Date:

Friday, October 25, 2013

  Actual Average Record
Temperature  
Mean Temperature 52 °F -  
Max Temperature 67 °F 69 °F 93 °F (2014)
Min Temperature 38 °F 47 °F 33 °F (2005)
Degree Days  
Heating Degree Days 12    
Growing Degree Days 2 (Base 50)    
Moisture  
Dew Point 42 °F    
Average Humidity 65    
Maximum Humidity 88    
Minimum Humidity 46    
Precipitation  
Precipitation 0.00 in - - ()
Sea Level Pressure  
Sea Level Pressure 30.31 in    
Wind  
Wind Speed 9 mph (ESE)    
Max Wind Speed 14 mph    
Max Gust Speed 16 mph    
Visibility 10 miles    
Events Rain    
Averages and records for this station are not official NWS values.
T = Trace of Precipitation, MM = Missing Value Source: NWS Daily Summary

Daily Weather History Graph

Daily Weather History Graph

Search for Another Location

Airport or City:

Trip Planner

Search our weather history database for the weather conditions in past years. The results will help you decide how hot, cold, wet, or windy it might be!

Date:

Astronomy

Oct. 25, 2013 Rise Set
Actual Time 7:51 AM CDT 6:50 PM CDT
Civil Twilight 7:25 AM CDT 7:15 PM CDT
Nautical Twilight 6:56 AM CDT 7:45 PM CDT
Astronomical Twilight 6:26 AM CDT 8:14 PM CDT
Moon No Moon Rise 1:29 PM CDT (10/25)
Length of Visible Light 11h 50m
Length of Day
10h 58m
Waning Gibbous, 62% of the Moon is Illuminated
Oct 25
Waning Gibbous
Oct 26
Last Quarter
Nov 3
New
Nov 9
First Quarter
Nov 17
Full

Hourly Weather History & Observations

Time (CDT) Temp. Windchill Dew Point Humidity Pressure Visibility Wind Dir Wind Speed Gust Speed Precip Events Conditions
12:58 AM 44.6 °F 39.7 °F 37.9 °F 77% 30.35 in 10.0 mi NNE 9.2 mph - N/A   Clear
1:58 AM 44.2 °F 39.2 °F 37.6 °F 77% 30.36 in 10.0 mi NE 9.2 mph - N/A   Clear
2:58 AM 42.6 °F 38.4 °F 36.9 °F 80% 30.37 in 10.0 mi NE 6.9 mph - N/A   Clear
3:58 AM 41.5 °F 38.6 °F 36.5 °F 82% 30.37 in 10.0 mi ENE 4.6 mph - N/A   Clear
4:58 AM 39.0 °F 35.7 °F 35.6 °F 88% 30.38 in 10.0 mi NNE 4.6 mph - N/A   Clear
5:58 AM 39.4 °F 33.8 °F 36.0 °F 88% 30.39 in 10.0 mi NNE 8.1 mph - N/A   Clear
6:58 AM 39.4 °F 35.2 °F 35.6 °F 86% 30.40 in 10.0 mi NNE 5.8 mph - N/A   Clear
7:58 AM 38.8 °F 34.6 °F 35.2 °F 87% 30.40 in 10.0 mi NE 5.8 mph - N/A   Clear
8:58 AM 46.8 °F - 33.8 °F 61% 30.41 in 10.0 mi East 9.2 mph - N/A   Clear
9:58 AM 50.7 °F - 36.7 °F 59% 30.43 in 10.0 mi ESE 12.7 mph - N/A   Partly Cloudy
10:53 AM 53.6 °F - 39.2 °F 58% 30.42 in 10.0 mi SE 12.7 mph - N/A   Mostly Cloudy
10:58 AM 54.0 °F - 38.8 °F 57% 30.43 in 10.0 mi SE 8.1 mph - N/A   Mostly Cloudy
11:28 AM 55.4 °F - 39.2 °F 54% 30.40 in 10.0 mi SE 13.8 mph - N/A   Scattered Clouds
11:58 AM 56.7 °F - 40.5 °F 55% 30.39 in 10.0 mi SE 10.4 mph - N/A   Clear
12:58 PM 59.0 °F - 41.9 °F 53% 30.36 in 10.0 mi South 11.5 mph 16.1 mph N/A   Clear
1:58 PM 60.8 °F - 43.0 °F 52% 30.33 in 10.0 mi SSE 9.2 mph - N/A   Clear
2:58 PM 63.3 °F - 43.9 °F 49% 30.29 in 10.0 mi SSE 6.9 mph - N/A   Partly Cloudy
3:58 PM 65.5 °F - 45.0 °F 47% 30.26 in 10.0 mi SSE 10.4 mph - N/A   Partly Cloudy
4:58 PM 67.5 °F - 45.9 °F 46% 30.23 in 10.0 mi SE 11.5 mph - N/A   Clear
5:58 PM 66.0 °F - 47.1 °F 50% 30.22 in 10.0 mi SE 12.7 mph - N/A   Partly Cloudy
6:13 PM 66.2 °F - 48.2 °F 52% 30.21 in 10.0 mi SSE 10.4 mph - N/A Rain Light Rain
6:22 PM 64.4 °F - 48.2 °F 56% 30.21 in 10.0 mi SSE 11.5 mph - N/A   Clear
6:58 PM 62.2 °F - 47.5 °F 58% 30.20 in 10.0 mi SSE 9.2 mph - N/A   Clear
7:58 PM 57.6 °F - 47.7 °F 70% 30.21 in 10.0 mi SE 8.1 mph - N/A   Overcast
8:58 PM 58.8 °F - 49.3 °F 71% 30.21 in 10.0 mi ESE 8.1 mph - N/A   Overcast
9:58 PM 58.1 °F - 48.6 °F 71% 30.21 in 10.0 mi SE 10.4 mph - N/A   Mostly Cloudy
10:58 PM 57.9 °F - 47.8 °F 69% 30.21 in 10.0 mi SE 9.2 mph - N/A   Mostly Cloudy
11:58 PM 57.2 °F - 47.8 °F 71% 30.17 in 10.0 mi SE 12.7 mph - N/A   Mostly Cloudy